Location: Ergenzingen
(48.4940°N, 8.8100°E)
Time: 05:22:02
(UTC+00:00)

Daily predictions for brighter satellites

Satellite Brightness Start Highest point End
(mag) Time Altitude Azimuth Time Altitude Azimuth Time Altitude Azimuth
Cosmos 1825 2.7 00:04:51 33° WSW 00:05:43 40° WNW 00:08:59 10° N
SL-4 R/B 3.2 00:03:49 10° W 00:06:37 26° WSW 00:06:37 26° WSW
Cosmos 2154 Rocket 4.0 00:07:15 28° SSW 00:10:47 78° W 00:17:07 10° N
SL-12 R/B(2) 4.3 00:07:46 23° SSW 00:13:26 79° SE 00:23:16 10° NE
Cosmos 2297 Rocket 3.2 00:09:02 14° WSW 00:13:29 42° NW 00:18:51 10° NNE
Okean 1 Rocket 3.6 00:10:25 10° NNW 00:14:33 43° W 00:16:03 31° SW
NOSS 3-2 (A) 3.4 00:12:22 30° S 00:14:48 55° ESE 00:20:45 10° NE
Meteor 1-21 Rocket 4.3 00:12:01 28° S 00:15:09 80° E 00:20:51 10° NNE
Cosmos 923 Rocket 4.5 00:10:30 10° NNW 00:15:43 58° ENE 00:20:13 14° SE
Cosmos 2219 3.2 00:14:01 29° SSW 00:16:57 74° ESE 00:22:34 10° NNE
ADEOS II 4.5 00:16:04 10° ENE 00:18:14 12° E 00:20:22 10° ESE
Aureole 1 Rocket 2.9 00:17:04 39° S 00:18:14 61° ESE 00:22:36 10° NNE
NOSS 3-2 (C) 4.4 00:19:18 21° SSE 00:21:40 29° ESE 00:26:43 10° NE
Cosmos 1937 Rocket 4.3 00:19:39 23° SSE 00:22:21 41° ESE 00:27:16 10° NE
Cosmos 1898 Rocket 3.7 00:24:22 28° S 00:26:58 60° ESE 00:32:04 10° NNE
SL-8 Rocket 4.4 00:23:20 21° SSE 00:27:24 56° E 00:33:27 10° NNE
Cosmos 1606 3.3 00:27:59 10° N 00:31:28 47° ENE 00:33:25 23° SE
H-2A R/B 3.5 00:29:57 10° N 00:33:36 28° WNW 00:35:54 17° WSW
Resurs 1-4 Rocket 3.7 00:29:32 10° NE 00:33:55 26° E 00:37:56 11° SSE
Cosmos 1975 Rocket 3.0 00:37:42 31° SSW 00:39:46 86° W 00:44:12 10° N
Meteor 2-1 Rocket 4.3 00:36:02 10° NNW 00:41:59 89° W 00:46:08 20° S
Cosmos 292 Rocket 3.7 00:40:12 28° SSW 00:42:43 80° WNW 00:47:34 10° NNE
Cosmos 2263 Rocket 2.1 00:42:06 26° SSW 00:45:24 86° ESE 00:51:01 10° NNE
BlueWalker 3 3.3 00:45:16 10° WNW 00:48:48 39° N 00:52:21 10° ENE
Orbus 7S? 3.0 00:47:02 10° NW 00:49:43 70° NE 00:53:35 10° ESE
BREEZE-M DEB (TANK) 4.3 00:46:32 10° W 00:49:57 81° N 01:00:49 10° E
Cosmos 1455 Rocket 3.7 00:46:49 10° NNW 00:51:01 42° W 00:52:57 27° SW
Cosmos 1680 Rocket 3.4 00:52:27 10° NNW 00:57:42 88° WSW 01:02:17 13° SSE
Cosmos 2112 Rocket 4.0 00:55:04 10° NNW 01:00:18 84° ENE 01:05:24 10° SSE
Cosmos 2341 Rocket 4.0 00:56:40 22° SSW 01:00:51 81° W 01:07:08 10° N
Helios 1A Rocket 3.2 01:02:09 28° SSW 01:03:37 42° W 01:07:15 10° NNW
Cosmos 1818 3.5 00:58:17 10° NW 01:03:44 66° WSW 01:09:07 10° SSE
Cosmos 1025 Rocket 4.5 01:02:30 17° WSW 01:04:49 26° WNW 01:08:29 10° NNW
USA 234 4.4 00:58:49 10° E 01:04:59 46° N 01:11:09 10° WNW
Cosmos 1844 Rocket 4.1 01:00:50 12° SSE 01:05:04 28° ESE 01:09:46 10° NE
Cosmos 1461 2.7 01:06:44 27° SSW 01:08:47 80° SE 01:12:41 10° NE
Cosmos 1536 Rocket 4.1 01:06:18 18° SSE 01:09:26 54° E 01:13:46 10° NNE
CENTAUR R/B 3.2 01:11:48 11° WSW 01:17:27 52° NW 01:24:40 10° NE
COBE Rocket 4.0 01:12:27 10° N 01:17:37 78° WNW 01:21:15 20° SSW
IDEFIX/ARIANE 42P 2.6 01:16:25 10° NNE 01:21:43 82° ESE 01:25:41 18° SSW
SL-16 R/B 3.4 01:19:24 10° NW 01:23:56 25° WSW 01:26:33 18° SW
USA 238 DEB 4.1 01:23:02 17° S 01:27:39 49° ESE 01:34:04 10° NE
USA 238 4.1 01:23:04 17° S 01:27:42 49° ESE 01:34:07 10° NE
Cosmos 1869 3.9 01:24:44 10° NNW 01:28:07 34° W 01:29:52 22° SW
Cosmos 1603 3.8 01:23:30 10° NNW 01:29:18 85° ENE 01:35:02 10° SSE
CZ-2C R/B 3.5 01:25:03 10° NNE 01:30:26 61° E 01:34:59 13° S
MSX 3.9 01:25:26 10° NNE 01:31:13 83° ESE 01:36:00 15° SSW
Cosmos 1821 Rocket 4.0 01:26:29 15° S 01:31:40 84° E 01:37:51 10° N
Cosmos 1607 4.4 01:25:29 10° NW 01:31:56 69° NE 01:38:13 10° SE
ASTEX 1 4.3 01:28:07 10° SSE 01:32:47 48° ENE 01:37:27 10° N
Cosmos 2082 4.4 01:31:20 15° SW 01:35:52 46° NW 01:41:18 10° NNE
Cosmos 2218 Rocket 4.2 01:31:20 17° SSW 01:36:05 58° WNW 01:42:12 10° N
CZ-4C R/B 4.4 01:32:44 10° WNW 01:36:59 23° NNW 01:42:04 10° NE
CZ-2C R/B 2.6 01:32:04 11° S 01:37:10 72° WSW 01:42:36 10° NNW
CZ-2D R/B 2.2 01:31:51 10° NNE 01:37:15 79° ESE 01:41:46 14° S
Cosmos 2227 Rocket 4.1 01:33:37 10° W 01:38:01 22° NW 01:42:25 10° N
Cosmos 1943 3.3 01:32:46 10° NW 01:38:16 56° WSW 01:43:43 10° S
Cosmos 1437 Rocket 2.8 01:35:32 17° S 01:38:24 74° E 01:42:11 10° NNE
Cosmos 1900 4.4 01:34:55 18° SW 01:38:47 89° SE 01:43:54 10° NE
Cosmos 2366 rocket 4.4 01:37:03 16° SSW 01:41:54 51° WNW 01:47:59 10° N
FENGYUN 3A 4.1 01:37:35 10° NNE 01:42:55 60° ESE 01:48:12 10° S
Cosmos 494 Rocket 4.0 01:42:05 10° NNW 01:47:21 84° WSW 01:52:36 10° SSE
Cosmos 1867 3.8 01:47:41 15° SSW 01:52:11 67° ESE 01:57:39 10° NE
Cosmos 2058 Rocket 4.4 01:51:41 10° N 01:55:54 40° ENE 02:00:03 10° SE
NPP 4.0 01:51:15 10° N 01:56:32 56° WNW 02:01:12 13° SW
ADEOS II 2.2 01:53:23 10° NNE 01:58:40 82° ESE 02:03:53 10° SSW
Cosmos 1892 Rocket 4.3 01:54:27 10° S 01:58:42 52° E 02:03:01 10° NNE
Cosmos 2228 4.1 01:57:10 10° NNW 02:00:53 28° W 02:03:53 14° SW
AQUA 4.0 01:56:23 10° NNE 02:01:07 71° ESE 02:05:49 10° S
SL-24 DEB 4.3 01:56:49 10° N 02:01:24 82° E 02:05:59 10° S
Iridium 4 Rocket 4.5 01:57:36 10° N 02:01:48 40° E 02:06:18 10° SSE
NOSS 3-2 (A) 4.5 02:00:43 10° W 02:05:51 39° NNW 02:12:00 10° NE
Cosmos 2123 Rocket 4.1 01:59:39 10° N 02:05:52 81° E 02:12:05 10° SSE
H-2A R/B 4.2 02:04:32 10° N 02:08:13 37° WNW 02:11:32 12° SW
Cosmos 1934 Rocket 4.3 02:02:51 10° S 02:09:08 72° E 02:15:30 10° NNE
SL-16 R/B 2.6 02:02:55 10° SSE 02:09:11 82° WSW 02:15:27 10° NNW
ALOS 2.6 02:04:42 10° NNE 02:09:18 63° ESE 02:13:53 10° S
USA 267 3.9 02:04:47 10° ENE 02:11:02 46° SE 02:17:14 10° SSW
NOSS 3-2 (C) 3.7 02:06:43 10° WSW 02:12:00 59° NW 02:18:23 10° NE
Resurs 1-4 Rocket 2.5 02:08:52 10° N 02:13:58 51° WNW 02:19:00 10° SW
ATLAS 5 CENTAUR R/B 3.6 02:16:45 10° SE 02:17:38 11° ESE 02:18:33 10° E
Cosmos 1844 3.8 02:14:11 10° SSW 02:19:56 88° ESE 02:25:47 10° NNE
Cosmos 1812 2.5 02:20:26 10° N 02:24:01 85° W 02:27:35 10° S
Cosmos 1544 4.0 02:22:56 10° SSE 02:25:16 30° E 02:27:38 10° NNE
BlueWalker 3 2.6 02:23:43 10° WNW 02:27:25 56° NNE 02:31:07 10° E
Cosmos 2263 Rocket 4.0 02:25:48 10° W 02:30:02 22° NW 02:34:19 10° N
SAR-Lupe-4 3.6 02:30:53 10° NNE 02:34:28 87° ESE 02:38:01 10° SSW
Cosmos 921 Rocket 3.8 02:31:32 10° NW 02:35:14 30° W 02:38:53 10° SSW
Cosmos 1606 Rocket 4.5 02:34:14 10° NNW 02:38:12 32° W 02:42:07 10° SSW
Cosmos 1782 4.1 02:35:08 10° N 02:38:49 42° ENE 02:42:29 10° SSE
Cosmos 724 4.4 02:39:49 10° NW 02:45:28 55° WSW 02:51:09 10° SSE
USA 234 3.5 02:41:03 10° ESE 02:47:36 79° NNE 02:54:09 10° NW
BREEZE-M DEB (TANK) 3.8 02:44:21 10° SW 02:50:09 28° SSE 02:52:45 10° E
